[[{"header":{"parameterUnit":"m.s-1","parameterCategory":1,"la1":30.2991,"la2":30.254,"lo1":-89.0895,"lo2":-89.0444,"dx":0.0017,"dy":0.0017,"nx":28,"ny":28,"refTime":"2022-11-21T15:00:00:Z","depth":0,"parameterNumber":2,"parameterNumberName":"U-component_of_WINDS"},"data":[0,0,0,0,0,0,0,0,0,0,0,0,0,0,0,0,0,0,0,0,0,0,0,0,0,0,0,0,0,0,0,0,0,0,0,0,0,0,0,0,0,0,0,0,0,0,0,0,0,0,0,0,0,0,0,0,0,0,-1.8717,-1.8718,0,-1.8819,-1.882,-1.8821,-1.8783,-1.878,-1.8778,-1.8776,-1.8884,-1.8889,-1.8894,0,0,0,0,0,0,0,0,0,0,0,0,0,-1.849,-1.8494,-1.8717,-1.8718,-1.8719,-1.8819,-1.882,-1.8822,-1.8783,-1.878,-1.8777,-1.8774,-1.8882,-1.8888,-1.8894,0,0,0,0,0,0,0,0,0,0,0,0,0,-1.859,-1.8496,-1.8716,-1.8712,-1.8712,-1.8819,-1.882,-1.8822,-1.8784,-1.878,-1.8776,-1.8773,-1.888,-1.8887,-1.8895,-1.9013,0,0,-1.8918,-1.8922,0,0,0,0,0,0,0,0,-1.8585,-1.8599,-1.8711,-1.8712,-1.8713,-1.8784,-1.878,-1.8886,-1.8784,-1.8757,-1.8775,-1.8771,-1.8854,-1.8863,-1.889,-1.9018,-1.9023,-1.8919,-1.8924,-1.8927,-1.8929,0,0,0,0,0,0,0,-1.8578,-1.8594,-1.8757,-1.8713,-1.8714,-1.8705,-1.8716,-1.88,-1.8824,-1.8759,-1.8756,-1.8769,-1.8854,-1.8883,-1.8893,-1.9024,-1.8919,-1.8925,-1.893,-1.8933,-1.9256,-1.9259,0,0,0,0,0,0,-1.857,-1.8588,-1.8754,-1.876,-1.8639,-1.8712,-1.8724,-1.8765,-1.8823,-1.8828,-1.8772,-1.8766,-1.8872,-1.8884,-1.8896,-1.904,-1.8927,-1.8934,-1.8938,-1.9252,-1.9256,-1.9261,0,0,0,0,0,0,-1.8565,-1.8585,-1.875,-1.8674,-1.8694,-1.872,-1.8767,-1.8769,-1.8798,-1.8832,-1.8837,-1.8797,-1.887,-1.8886,-1.8984,-1.9043,-1.8937,-1.8944,-1.9247,-1.9253,-1.9259,-1.9328,0,0,0,0,0,0,-1.8559,-1.8584,-1.8628,-1.8675,-1.8698,-1.8836,-1.877,-1.8774,-1.8811,-1.8806,-1.8858,-1.8863,-1.8868,-1.8973,-1.8992,-1.9052,-1.895,-1.9242,-1.925,-1.9257,-1.9321,-1.9335,-1.9348,0,0,0,0,0,-1.8551,-1.8644,-1.8631,-1.8651,-1.8754,-1.8839,-1.8853,-1.8855,-1.8816,-1.8862,-1.8884,-1.8861,-1.9033,-1.8984,-1.9004,-1.9068,-1.9238,-1.9247,-1.9256,-1.9314,-1.9333,-1.9348,0,0,0,0,0,0,-1.8605,-1.865,-1.8636,-1.8746,-1.8789,-1.8832,-1.889,-1.8874,-1.893,-1.8923,-1.8924,-1.8937,-1.9039,-1.9062,-1.9007,-1.9186,-1.913,-1.9143,-1.9167,-1.9185,-1.9198,-1.9192,-1.8957,0,0,0,0,0,-1.8629,-1.8693,-1.8729,-1.8824,-1.8846,-1.8864,-1.8901,-1.89,-1.8944,-1.8963,-1.8992,-1.9037,-1.9101,-1.9144,-1.9204,-1.9322,-1.9335,-1.9376,-1.939,-1.9401,-1.9414,-1.948,-1.95,-1.929,-1.929,-1.929,0,0,-1.8681,-1.8713,-1.8754,-1.8835,-1.8868,-1.8936,-1.888,-1.8953,-1.9004,-1.8974,-1.907,-1.9092,-1.9143,-1.9253,-1.9302,-1.9276,-1.9474,-1.9413,-1.9421,-1.9428,-1.9492,-1.9512,-1.9529,-1.9296,-1.9295,-1.9294,0,0,-1.881,-1.884,-1.8923,-1.8957,-1.9007,-1.9019,-1.9038,-1.9084,-1.9098,-1.9193,-1.9173,-1.9233,-1.9343,-1.9381,-1.9414,-1.9557,-1.954,-1.9577,-1.9651,-1.9715,-1.9732,-1.9747,-1.98,-1.9819,-1.9588,-1.9589,-1.9589,0,-1.8869,-1.8969,-1.8968,-1.9044,-1.9081,-1.9055,-1.914,-1.9173,-1.9241,-1.9268,-1.9236,-1.9374,-1.9406,-1.9525,-1.956,-1.9587,-1.9611,-1.9572,-1.9729,-1.9744,-1.9758,-1.9809,-1.9829,-1.9593,-1.9593,-1.9592,-1.9592,0,-1.904,-1.911,-1.9171,-1.9237,-1.928,-1.936,-1.9372,-1.9416,-1.941,-1.9426,-1.9524,-1.9561,-1.963,-1.9657,-1.9652,-1.9776,-1.9758,-1.9728,-1.9673,-1.9782,-1.9831,-1.985,-1.9599,-1.9598,-1.9596,-1.9595,0,0,-1.9209,-1.9272,-1.9295,-1.9325,-1.9378,-1.9432,-1.9511,-1.9577,-1.9617,-1.9664,-1.9732,-1.9825,-1.9797,-1.9835,-1.9834,-1.989,-2.0005,-1.9854,-1.9855,-1.9883,-2.0146,-2.0171,-2.0194,-1.9992,-1.9995,-1.9998,-2.0143,0,-1.9345,-1.9483,-1.9484,-1.9612,-1.9678,-1.9653,-1.9722,-1.9763,-1.9779,-1.9838,-1.9855,-1.9923,-1.988,-1.9903,-1.9957,-1.9979,-2.0058,-1.9968,-2.0058,-2.0061,-2.0049,-2.0219,-2.0245,-2.038,-2.0162,-2.0165,-2.0167,0,-1.9523,-1.9576,-1.971,-1.9754,-1.9782,-1.9844,-1.9905,-1.9961,-2.0007,-2.0015,-2.0057,-2.0047,-2.0129,-2.0068,-2.0182,-2.0121,-2.0157,-2.0174,-2.0179,-2.019,-2.0123,-2.0238,-2.0423,-2.0444,-2.0196,-2.0194,-2.0192,0,-1.9637,-1.9741,-1.9835,-1.9861,-1.9914,-1.9959,-1.9983,-2.0025,-2.0065,-2.0119,-2.0145,-2.0207,-2.0242,-2.0291,-2.0299,-2.0254,-2.0415,-2.0354,-2.0426,-2.0426,-2.0464,-2.0462,-2.0661,-2.0481,-2.0481,-2.0481,-2.048,0,-1.9791,-1.9875,-1.9887,-1.9946,-2.0039,-2.0039,-2.0132,-2.0153,-2.019,-2.0253,-2.0235,-2.0295,-2.03,-2.0362,-2.0368,-2.0463,-2.0478,-2.0488,-2.049,-2.0492,-2.0491,-2.0518,-2.051,-2.0486,-2.0485,-2.0484,-2.0483,0,-1.9935,-1.9946,-2.0048,-2.009,-2.0102,-2.017,-2.0206,-2.0262,-2.0275,-2.0355,-2.0374,-2.0396,-2.0467,-2.0479,-2.0563,-2.0568,-2.0682,-2.0672,-2.0667,-2.0667,-2.0739,-2.0733,-2.0965,-2.0996,-2.0793,-2.0795,-2.0797,0,-2.0035,-2.0099,-2.0147,-2.0187,-2.0214,-2.0279,-2.032,-2.0321,-2.0365,-2.0421,-2.0472,-2.0541,-2.0597,-2.0713,-2.0737,-2.0802,-2.0796,-2.0872,-2.0806,-2.0806,-2.0801,-2.0798,-2.0806,-2.0886,-2.0889,-2.089,-2.0892,0,-2.0211,-2.0213,-2.0272,-2.0333,-2.0382,-2.043,-2.0476,-2.051,-2.0518,-2.0567,-2.064,-2.0684,-2.0769,-2.084,-2.0904,-2.093,-2.0914,-2.0912,-2.0932,-2.0937,-2.0933,-2.0939,-2.0706,-2.0908,-2.0906,-2.0905,-2.0904,-2.0903,-2.0338,-2.0395,-2.0438,-2.0504,-2.0538,-2.0581,-2.0637,-2.0656,-2.0717,-2.0786,-2.0783,-2.0864,-2.0908,-2.0993,-2.1023,-2.1087,-2.1063,-2.1092,-2.11,-2.1108,-2.1116,-2.092,-2.1098,-2.1098,-2.1097,-2.1097,-2.1097,0,-2.0516,-2.0542,-2.0603,-2.0667,-2.072,-2.0697,-2.0746,-2.0792,-2.0863,-2.0905,-2.0961,-2.1045,-2.1113,-2.1141,-2.1208,-2.1254,-2.1249,-2.1272,-2.1271,-2.1277,-2.1133,-2.111,-2.1276,-2.1276,-2.1276,-2.1276,-2.1276,-2.1276,-2.0616,-2.0711,-2.0718,-2.083,-2.0855,-2.0933,-2.0964,-2.1004,-2.1038,-2.1133,-2.1189,-2.1206,-2.1244,-2.1313,-2.1375,-2.1381,-2.1408,-2.1436,-2.144,-2.1305,-2.1287,-2.127,-2.1249,-2.1441,-2.1442,-2.158,-2.1581,-2.1582]},{"header":{"parameterUnit":"m.s-1","parameterCategory":1,"la1":30.2991,"la2":30.254,"lo1":-89.0895,"lo2":-89.0444,"dx":0.0017,"dy":0.0017,"nx":28,"ny":28,"refTime":"2022-11-21T15:00:00:Z","depth":0,"parameterNumber":3,"parameterNumberName":"V-component_of_WINDS"},"data":[0,0,0,0,0,0,0,0,0,0,0,0,0,0,0,0,0,0,0,0,0,0,0,0,0,0,0,0,0,0,0,0,0,0,0,0,0,0,0,0,0,0,0,0,0,0,0,0,0,0,0,0,0,0,0,0,0,0,-5.0388,-5.0389,0,-5.0434,-5.0434,-5.0435,-5.0376,-5.0374,-5.0372,-5.037,-5.0413,-5.0416,-5.0419,0,0,0,0,0,0,0,0,0,0,0,0,0,-5.0245,-5.0248,-5.0388,-5.0389,-5.0389,-5.0434,-5.0434,-5.0435,-5.0377,-5.0374,-5.0371,-5.0369,-5.0412,-5.0416,-5.0419,0,0,0,0,0,0,0,0,0,0,0,0,0,-5.0301,-5.0249,-5.0388,-5.0365,-5.0364,-5.0434,-5.0434,-5.0435,-5.0377,-5.0374,-5.0371,-5.0368,-5.0411,-5.0415,-5.042,-5.0513,0,0,-5.0434,-5.0436,0,0,0,0,0,0,0,0,-5.0298,-5.0306,-5.0368,-5.0367,-5.0366,-5.0396,-5.04,-5.0461,-5.0378,-5.0372,-5.037,-5.0366,-5.041,-5.0414,-5.043,-5.0515,-5.0517,-5.0435,-5.0438,-5.044,-5.0441,0,0,0,0,0,0,0,-5.0294,-5.0304,-5.0406,-5.0369,-5.0368,-5.0352,-5.0356,-5.0411,-5.0408,-5.0372,-5.0368,-5.0375,-5.0408,-5.0425,-5.043,-5.0517,-5.0435,-5.0439,-5.0442,-5.0443,-5.0679,-5.0683,0,0,0,0,0,0,-5.0293,-5.0301,-5.0405,-5.0407,-5.0323,-5.0357,-5.0362,-5.0389,-5.0407,-5.0407,-5.0377,-5.0372,-5.0419,-5.0425,-5.0432,-5.0541,-5.0439,-5.0444,-5.0447,-5.0676,-5.068,-5.0684,0,0,0,0,0,0,-5.029,-5.0303,-5.0403,-5.0353,-5.0365,-5.0363,-5.0394,-5.0392,-5.0409,-5.0411,-5.041,-5.0396,-5.0417,-5.0425,-5.0493,-5.0542,-5.0446,-5.045,-5.0672,-5.0677,-5.0682,-5.0761,0,0,0,0,0,0,-5.0287,-5.0302,-5.0339,-5.0354,-5.0367,-5.0465,-5.0397,-5.0395,-5.0418,-5.0411,-5.0428,-5.0428,-5.0415,-5.0486,-5.0498,-5.0546,-5.0454,-5.0668,-5.0674,-5.068,-5.0754,-5.0768,-5.078,0,0,0,0,0,-5.0282,-5.0358,-5.0341,-5.0354,-5.0413,-5.0468,-5.0475,-5.046,-5.0422,-5.0458,-5.0459,-5.0427,-5.0535,-5.0494,-5.0506,-5.0557,-5.0664,-5.0672,-5.068,-5.0748,-5.0765,-5.078,0,0,0,0,0,0,-5.0347,-5.036,-5.0341,-5.0425,-5.0446,-5.0458,-5.0503,-5.0479,-5.051,-5.0502,-5.048,-5.0485,-5.0557,-5.0564,-5.0518,-5.0647,-5.0593,-5.0604,-5.064,-5.0657,-5.067,-5.0667,-5.0458,0,0,0,0,0,-5.0372,-5.0417,-5.0425,-5.0499,-5.051,-5.0505,-5.0528,-5.0515,-5.0535,-5.0543,-5.0549,-5.0569,-5.0606,-5.0632,-5.0667,-5.0754,-5.0757,-5.0795,-5.0808,-5.0819,-5.0828,-5.0874,-5.0891,-5.0709,-5.0709,-5.0709,0,0,-5.0423,-5.0435,-5.0465,-5.0512,-5.0527,-5.0572,-5.0513,-5.0563,-5.0597,-5.055,-5.0615,-5.062,-5.064,-5.0719,-5.0753,-5.0726,-5.0879,-5.0829,-5.0838,-5.0841,-5.0884,-5.0901,-5.0916,-5.0715,-5.0714,-5.0713,0,0,-5.0539,-5.0553,-5.0616,-5.0632,-5.0655,-5.0651,-5.0666,-5.0681,-5.0683,-5.0749,-5.0714,-5.0753,-5.0819,-5.0835,-5.0851,-5.0972,-5.0944,-5.0984,-5.1053,-5.1098,-5.1112,-5.1125,-5.1167,-5.1183,-5.0994,-5.0994,-5.0994,0,-5.0598,-5.0667,-5.0651,-5.0704,-5.0725,-5.0687,-5.0749,-5.0765,-5.0798,-5.0813,-5.0782,-5.0864,-5.0875,-5.0956,-5.0985,-5.1,-5.1016,-5.0982,-5.1112,-5.1124,-5.1135,-5.1176,-5.1192,-5.0999,-5.0998,-5.0997,-5.0997,0,-5.0739,-5.0787,-5.0835,-5.0869,-5.0896,-5.0953,-5.0944,-5.0973,-5.0957,-5.0955,-5.1021,-5.1033,-5.1069,-5.1088,-5.1072,-5.1166,-5.1148,-5.1115,-5.106,-5.1158,-5.1195,-5.1211,-5.1005,-5.1004,-5.1002,-5.1001,0,0,-5.0898,-5.0922,-5.094,-5.0955,-5.0977,-5.1013,-5.1068,-5.1105,-5.113,-5.1154,-5.1199,-5.1255,-5.1225,-5.1244,-5.1229,-5.1269,-5.1363,-5.123,-5.123,-5.1254,-5.1466,-5.1491,-5.1509,-5.1344,-5.1347,-5.135,-5.1464,0,-5.1014,-5.1111,-5.1097,-5.119,-5.1234,-5.1197,-5.1245,-5.1263,-5.1263,-5.1298,-5.1298,-5.1338,-5.1295,-5.1306,-5.1343,-5.1344,-5.1405,-5.1335,-5.1385,-5.1387,-5.1381,-5.1529,-5.1555,-5.1663,-5.1479,-5.1481,-5.1483,0,-5.1162,-5.1192,-5.129,-5.1305,-5.1323,-5.1366,-5.1399,-5.1434,-5.1453,-5.145,-5.1471,-5.1449,-5.1503,-5.1447,-5.152,-5.1473,-5.1492,-5.1495,-5.1499,-5.1503,-5.1441,-5.1536,-5.1697,-5.1713,-5.1506,-5.1504,-5.1503,0,-5.1267,-5.1333,-5.1399,-5.1413,-5.1433,-5.1464,-5.1473,-5.1489,-5.1512,-5.154,-5.1554,-5.1587,-5.1605,-5.1631,-5.1618,-5.1579,-5.1693,-5.1636,-5.1691,-5.1691,-5.1716,-5.1715,-5.1882,-5.1729,-5.1729,-5.1729,-5.1728,0,-5.1398,-5.1459,-5.1447,-5.1488,-5.1555,-5.1538,-5.1604,-5.1608,-5.1623,-5.1663,-5.1632,-5.167,-5.1651,-5.1687,-5.1678,-5.1739,-5.1747,-5.1745,-5.1742,-5.1748,-5.1748,-5.176,-5.1752,-5.1733,-5.1732,-5.1731,-5.1731,0,-5.1527,-5.1522,-5.1592,-5.1605,-5.1609,-5.1658,-5.1668,-5.1706,-5.1703,-5.1754,-5.1765,-5.1761,-5.1802,-5.1792,-5.1836,-5.1829,-5.1906,-5.1893,-5.19,-5.1897,-5.1952,-5.1947,-5.2132,-5.2156,-5.1988,-5.199,-5.1991,0,-5.1611,-5.1657,-5.1675,-5.17,-5.1712,-5.1754,-5.1777,-5.1761,-5.1786,-5.1811,-5.1846,-5.1884,-5.1914,-5.1981,-5.1981,-5.2014,-5.2001,-5.2064,-5.2006,-5.2011,-5.2002,-5.1999,-5.2003,-5.2076,-5.2078,-5.2079,-5.208,0,-5.176,-5.1755,-5.179,-5.1825,-5.1854,-5.188,-5.1903,-5.1925,-5.1911,-5.1941,-5.1983,-5.2006,-5.2052,-5.209,-5.212,-5.2128,-5.2102,-5.2099,-5.2113,-5.212,-5.2121,-5.2121,-5.1931,-5.2095,-5.2093,-5.2092,-5.2091,-5.2091,-5.1868,-5.1907,-5.1926,-5.1966,-5.1982,-5.2005,-5.2041,-5.2043,-5.2078,-5.2115,-5.2103,-5.2151,-5.2167,-5.2206,-5.2217,-5.2253,-5.2229,-5.225,-5.2255,-5.2261,-5.2267,-5.2116,-5.2259,-5.2258,-5.2258,-5.2258,-5.2257,0,-5.2015,-5.2025,-5.2063,-5.2096,-5.2128,-5.2102,-5.2126,-5.2153,-5.2196,-5.2214,-5.2245,-5.2292,-5.2329,-5.2332,-5.2366,-5.2394,-5.2383,-5.2403,-5.2401,-5.2403,-5.2287,-5.2271,-5.2412,-5.2412,-5.2412,-5.2412,-5.2412,-5.2412,-5.2095,-5.216,-5.2157,-5.2228,-5.2237,-5.2285,-5.2301,-5.2321,-5.2335,-5.239,-5.2421,-5.2423,-5.2435,-5.2469,-5.2501,-5.2501,-5.2514,-5.254,-5.2535,-5.2427,-5.2411,-5.2396,-5.2381,-5.2543,-5.2543,-5.2648,-5.2649,-5.2649]}]]